Location: Campillo
(40.8621°N, 4.2488°W)
Time: 13:09:51
(UTC+00:00)

ATLAS 5 CENTAUR R/B - Pass Details

Date: 11 May 2021
Orbit: 516 x 1141 km, 63.3° (Epoch: 02 May)

Event Time Altitude Azimuth Distance (km) Brightness Sun altitude
Rises 20:38:55 0° 326° (NW) 3,289 6.8 -12.9°
Reaches altitude 10° 20:41:11 10° 327° (NNW) 2,447 5.8 -13.2°
Maximum altitude 20:46:58 81° 55° (NE) 955 2.4 -14.1°
Enters shadow 20:51:47 20° 142° (SE) 2,155 3.7 -14.8°
